[[{"header":{"parameterUnit":"m.s-1","parameterCategory":1,"la1":30.2991,"la2":30.254,"lo1":-89.0895,"lo2":-89.0444,"dy":0.0017,"dx":0.0017,"nx":28,"ny":28,"refTime":"2024-06-15T21:00:00:Z","depth":0,"parameterNumber":2,"parameterNumberName":"U-component_of_WINDS"},"data":[0,0,0,0,0,0,0,0,0,0,0,0,0,0,0,0,0,0,0,0,0,0,0,0,0,0,0,0,0,0,0,0,0,0,0,0,0,0,0,0,0,0,0,0,0,0,0,0,0,0,0,0,0,0,0,0,0,0,-6.8044,-6.8044,0,-6.8104,-6.8104,-6.8105,-6.8019,-6.8016,-6.8013,-6.801,-6.8067,-6.8072,-6.8076,0,0,0,0,0,0,0,0,0,0,0,0,0,-6.7852,-6.7856,-6.8044,-6.8044,-6.8045,-6.8104,-6.8104,-6.8105,-6.802,-6.8016,-6.8012,-6.8009,-6.8066,-6.8071,-6.8076,0,0,0,0,0,0,0,0,0,0,0,0,0,-6.7926,-6.7857,-6.8044,-6.801,-6.8007,-6.8103,-6.8104,-6.8105,-6.802,-6.8016,-6.8011,-6.8007,-6.8064,-6.8071,-6.8077,-6.8208,0,0,-6.8097,-6.81,0,0,0,0,0,0,0,0,-6.7922,-6.7933,-6.8014,-6.8012,-6.801,-6.8049,-6.8058,-6.814,-6.8022,-6.8015,-6.801,-6.8005,-6.8065,-6.8071,-6.8092,-6.8211,-6.8213,-6.8098,-6.8102,-6.8104,-6.8106,0,0,0,0,0,0,0,-6.7917,-6.793,-6.8067,-6.8015,-6.8013,-6.799,-6.7996,-6.8073,-6.8065,-6.8015,-6.8009,-6.8018,-6.8063,-6.8086,-6.8093,-6.8214,-6.8097,-6.8103,-6.8107,-6.811,-6.8444,-6.8448,0,0,0,0,0,0,-6.7916,-6.7926,-6.8065,-6.8069,-6.7954,-6.7998,-6.8004,-6.8041,-6.8064,-6.8063,-6.8022,-6.8014,-6.8077,-6.8085,-6.8094,-6.8249,-6.8104,-6.811,-6.8114,-6.8439,-6.8445,-6.845,0,0,0,0,0,0,-6.7913,-6.793,-6.8063,-6.7996,-6.8011,-6.8006,-6.8048,-6.8045,-6.8068,-6.8068,-6.8066,-6.8047,-6.8074,-6.8085,-6.8181,-6.8249,-6.8113,-6.8119,-6.8433,-6.8441,-6.8447,-6.8559,0,0,0,0,0,0,-6.7907,-6.7929,-6.7979,-6.7998,-6.8015,-6.8149,-6.8053,-6.8049,-6.808,-6.807,-6.8092,-6.8091,-6.8071,-6.8172,-6.8187,-6.8256,-6.8124,-6.8427,-6.8436,-6.8445,-6.8549,-6.8569,-6.8586,0,0,0,0,0,-6.7901,-6.8007,-6.7982,-6.7999,-6.8078,-6.8153,-6.8163,-6.814,-6.8086,-6.8135,-6.8136,-6.809,-6.824,-6.8182,-6.8199,-6.8271,-6.8422,-6.8434,-6.8444,-6.854,-6.8565,-6.8586,0,0,0,0,0,0,-6.7993,-6.8008,-6.7981,-6.8096,-6.8125,-6.8139,-6.82,-6.8166,-6.8209,-6.8198,-6.8166,-6.8172,-6.8274,-6.8282,-6.8217,-6.8399,-6.8322,-6.8337,-6.8389,-6.8413,-6.8431,-6.8425,-6.813,0,0,0,0,0,-6.8028,-6.8089,-6.8098,-6.8199,-6.8215,-6.8206,-6.8238,-6.8218,-6.8245,-6.8256,-6.8263,-6.829,-6.8344,-6.8379,-6.8428,-6.8551,-6.8554,-6.8609,-6.8627,-6.8643,-6.8655,-6.872,-6.8744,-6.8487,-6.8487,-6.8486,0,0,-6.8098,-6.8114,-6.8154,-6.8218,-6.8238,-6.8301,-6.8216,-6.8286,-6.8332,-6.8266,-6.8356,-6.8364,-6.8392,-6.8502,-6.855,-6.8511,-6.8728,-6.8657,-6.8669,-6.8673,-6.8734,-6.8759,-6.878,-6.8494,-6.8493,-6.8492,0,0,-6.8258,-6.8277,-6.8363,-6.8385,-6.8417,-6.841,-6.8432,-6.8452,-6.8454,-6.8546,-6.8497,-6.8552,-6.8644,-6.8666,-6.8689,-6.8862,-6.882,-6.8879,-6.8975,-6.9039,-6.906,-6.9077,-6.9137,-6.9159,-6.8892,-6.8892,-6.8892,0,-6.8341,-6.8435,-6.8411,-6.8485,-6.8515,-6.8461,-6.8547,-6.8569,-6.8614,-6.8635,-6.8593,-6.8708,-6.8724,-6.8837,-6.888,-6.8901,-6.8923,-6.8874,-6.9059,-6.9076,-6.9093,-6.9149,-6.9172,-6.8899,-6.8898,-6.8897,-6.8897,0,-6.8534,-6.8601,-6.8666,-6.8713,-6.8751,-6.883,-6.8818,-6.8859,-6.8837,-6.8835,-6.8929,-6.8946,-6.8997,-6.9024,-6.9002,-6.9135,-6.911,-6.9064,-6.8985,-6.9124,-6.9177,-6.9198,-6.8909,-6.8906,-6.8904,-6.8902,0,0,-6.875,-6.8786,-6.881,-6.8831,-6.8864,-6.8913,-6.8992,-6.9044,-6.9078,-6.9113,-6.9176,-6.9257,-6.9215,-6.9242,-6.9223,-6.928,-6.9414,-6.9226,-6.9226,-6.9258,-6.956,-6.9593,-6.9618,-6.9388,-6.9392,-6.9396,-6.9557,0,-6.8908,-6.9044,-6.9026,-6.9155,-6.9216,-6.9167,-6.9235,-6.9262,-6.9263,-6.9314,-6.9315,-6.9373,-6.9314,-6.9329,-6.9384,-6.9386,-6.9473,-6.9374,-6.9445,-6.9447,-6.9436,-6.9646,-6.968,-6.9831,-6.9578,-6.9581,-6.9584,0,-6.911,-6.9153,-6.9289,-6.9313,-6.9338,-6.9399,-6.9446,-6.9496,-6.9526,-6.9523,-6.9555,-6.9526,-6.9603,-6.9527,-6.9632,-6.9566,-6.9594,-6.96,-6.9605,-6.9608,-6.9521,-6.9652,-6.9879,-6.9901,-6.9616,-6.9613,-6.9611,0,-6.9251,-6.9344,-6.9437,-6.9457,-6.9488,-6.9532,-6.9547,-6.9572,-6.9605,-6.9647,-6.9668,-6.9718,-6.9744,-6.9783,-6.9768,-6.9714,-6.9876,-6.9799,-6.9874,-6.9875,-6.9907,-6.9905,-7.014,-6.9932,-6.9931,-6.9931,-6.993,0,-6.9428,-6.9512,-6.9501,-6.9558,-6.9651,-6.9631,-6.9724,-6.9732,-6.9756,-6.9813,-6.9775,-6.983,-6.9809,-6.9862,-6.9851,-6.9939,-6.9952,-6.9951,-6.9946,-6.9953,-6.9953,-6.9968,-6.9956,-6.9937,-6.9935,-6.9934,-6.9933,0,-6.9599,-6.9596,-6.9694,-6.9717,-6.9724,-6.9792,-6.981,-6.9864,-6.9864,-6.9937,-6.9953,-6.9952,-7.0013,-7.0004,-7.0071,-7.0064,-7.0173,-7.0158,-7.0163,-7.0159,-7.0234,-7.0226,-7.0485,-7.0517,-7.029,-7.0293,-7.0295,0,-6.971,-6.9774,-6.9805,-6.9842,-6.986,-6.9919,-6.9953,-6.9937,-6.9974,-7.0015,-7.0063,-7.0121,-7.0165,-7.0265,-7.027,-7.0321,-7.0304,-7.0392,-7.0311,-7.0316,-7.0303,-7.0298,-7.0304,-7.0406,-7.0409,-7.0411,-7.0413,0,-6.9908,-6.9903,-6.9955,-7.0007,-7.0049,-7.0089,-7.0125,-7.0157,-7.0143,-7.0187,-7.025,-7.0285,-7.0355,-7.0412,-7.0461,-7.0475,-7.0441,-7.0439,-7.0458,-7.0463,-7.0463,-7.0462,-7.0204,-7.0432,-7.043,-7.0428,-7.0427,-7.0426,-7.005,-7.0105,-7.0136,-7.0195,-7.0221,-7.0256,-7.0307,-7.0315,-7.0367,-7.0423,-7.0411,-7.0482,-7.0511,-7.0573,-7.0593,-7.0647,-7.0615,-7.0644,-7.0651,-7.0658,-7.0666,-7.0458,-7.0657,-7.0656,-7.0656,-7.0655,-7.0655,0,-7.0243,-7.0262,-7.0317,-7.0369,-7.0416,-7.0384,-7.0422,-7.0462,-7.0525,-7.0557,-7.0603,-7.0675,-7.0731,-7.0742,-7.0796,-7.0837,-7.0823,-7.0852,-7.0847,-7.085,-7.0693,-7.0669,-7.0862,-7.0862,-7.0862,-7.0862,-7.0862,-7.0862,-7.0349,-7.044,-7.044,-7.0544,-7.0561,-7.0631,-7.0655,-7.0687,-7.0712,-7.0795,-7.0842,-7.085,-7.0873,-7.0929,-7.0979,-7.0981,-7.1001,-7.1035,-7.103,-7.0882,-7.0861,-7.0841,-7.0819,-7.104,-7.104,-7.1183,-7.1184,-7.1185]},{"header":{"parameterUnit":"m.s-1","parameterCategory":1,"la1":30.2991,"la2":30.254,"lo1":-89.0895,"lo2":-89.0444,"dy":0.0017,"dx":0.0017,"nx":28,"ny":28,"refTime":"2024-06-15T21:00:00:Z","depth":0,"parameterNumber":3,"parameterNumberName":"V-component_of_WINDS"},"data":[0,0,0,0,0,0,0,0,0,0,0,0,0,0,0,0,0,0,0,0,0,0,0,0,0,0,0,0,0,0,0,0,0,0,0,0,0,0,0,0,0,0,0,0,0,0,0,0,0,0,0,0,0,0,0,0,0,0,1.9951,1.9951,0,1.9921,1.992,1.992,1.9903,1.9903,1.9903,1.9903,1.9868,1.9867,1.9866,0,0,0,0,0,0,0,0,0,0,0,0,0,1.9992,1.9992,1.9951,1.9951,1.995,1.9921,1.992,1.992,1.9903,1.9903,1.9903,1.9903,1.9868,1.9867,1.9866,0,0,0,0,0,0,0,0,0,0,0,0,0,1.9969,1.9992,1.9951,1.9938,1.9937,1.9921,1.992,1.992,1.9903,1.9903,1.9903,1.9903,1.9869,1.9867,1.9866,1.9858,0,0,1.9862,1.9861,0,0,0,0,0,0,0,0,1.9971,1.9968,1.9941,1.9939,1.9938,1.9916,1.9922,1.9899,1.9903,1.9916,1.9903,1.9903,1.9884,1.9881,1.9875,1.9857,1.9855,1.9862,1.9861,1.986,1.986,0,0,0,0,0,0,0,1.9972,1.9969,1.9939,1.994,1.9938,1.9934,1.993,1.9917,1.99,1.9915,1.9914,1.991,1.9883,1.9877,1.9874,1.9855,1.9862,1.986,1.986,1.9859,1.9831,1.9831,0,0,0,0,0,0,1.9976,1.997,1.994,1.9938,1.9955,1.9933,1.9929,1.9923,1.99,1.9897,1.991,1.991,1.9879,1.9876,1.9873,1.9864,1.986,1.9859,1.9858,1.983,1.9831,1.9831,0,0,0,0,0,0,1.9977,1.9974,1.9941,1.9954,1.9949,1.9932,1.9925,1.9922,1.9916,1.9897,1.9894,1.9908,1.9879,1.9875,1.9863,1.9862,1.9858,1.9857,1.983,1.983,1.9831,1.9844,0,0,0,0,0,0,1.9979,1.9974,1.9971,1.9954,1.9949,1.9932,1.9925,1.9922,1.9914,1.9913,1.9893,1.989,1.9878,1.9865,1.9862,1.986,1.9856,1.983,1.983,1.9831,1.9844,1.9845,1.9846,0,0,0,0,0,1.998,1.9975,1.9971,1.9968,1.9945,1.9932,1.9929,1.9917,1.9914,1.9911,1.99,1.9891,1.9863,1.9864,1.986,1.9858,1.983,1.983,1.9831,1.9844,1.9845,1.9846,0,0,0,0,0,0,1.9991,1.9973,1.9968,1.9958,1.9947,1.9929,1.9925,1.9918,1.9906,1.9905,1.989,1.9886,1.9875,1.9865,1.9867,1.9851,1.9846,1.9845,1.9857,1.9858,1.9859,1.9861,1.9855,0,0,0,0,0,1.9993,1.9984,1.9968,1.9961,1.9956,1.9942,1.9935,1.9927,1.9914,1.9909,1.9896,1.9884,1.9872,1.9865,1.9853,1.9843,1.9839,1.984,1.9841,1.9842,1.9841,1.9836,1.9837,1.9831,1.9831,1.9831,0,0,1.9995,1.9984,1.9979,1.9963,1.9953,1.9945,1.9937,1.9928,1.9921,1.9907,1.9896,1.9886,1.9871,1.986,1.9855,1.9852,1.9842,1.9842,1.9843,1.9842,1.9837,1.9837,1.9838,1.9831,1.9831,1.9831,0,0,1.9995,1.9986,1.9979,1.9971,1.9957,1.9948,1.9947,1.9931,1.9925,1.9913,1.9903,1.9895,1.9875,1.9865,1.9857,1.9857,1.9849,1.9854,1.9858,1.9854,1.9854,1.9854,1.9854,1.9855,1.9853,1.9853,1.9853,0,1.9999,1.9987,1.9976,1.9968,1.9961,1.9951,1.9944,1.9936,1.9919,1.9914,1.9912,1.9888,1.9877,1.9865,1.9865,1.9859,1.9857,1.9855,1.9855,1.9855,1.9855,1.9855,1.9855,1.9854,1.9854,1.9854,1.9854,0,1.9993,1.9984,1.998,1.9967,1.9959,1.9952,1.994,1.9934,1.9928,1.9919,1.9908,1.9895,1.9881,1.9878,1.987,1.9865,1.9863,1.9858,1.9853,1.9857,1.9857,1.9856,1.9855,1.9855,1.9854,1.9854,0,0,1.9996,1.9979,1.9978,1.9972,1.9958,1.9951,1.9943,1.9932,1.9927,1.9916,1.9909,1.9895,1.9891,1.9882,1.9874,1.987,1.9871,1.9865,1.9865,1.9867,1.9865,1.9869,1.9869,1.9867,1.9867,1.9866,1.9866,0,1.9994,1.9981,1.9973,1.9963,1.9956,1.9947,1.994,1.9931,1.9923,1.9915,1.9906,1.9896,1.9891,1.9886,1.9882,1.9872,1.9871,1.9872,1.9859,1.9859,1.9863,1.9869,1.9872,1.9872,1.9866,1.9866,1.9866,0,1.9989,1.9981,1.9971,1.996,1.9956,1.995,1.994,1.9933,1.9922,1.9917,1.9909,1.9901,1.9893,1.989,1.9878,1.9879,1.9874,1.9869,1.9868,1.9866,1.9862,1.9866,1.9872,1.9872,1.9866,1.9866,1.9866,0,1.9993,1.998,1.9972,1.9968,1.9954,1.995,1.9944,1.9934,1.9928,1.9919,1.9915,1.9905,1.9899,1.9891,1.988,1.9879,1.987,1.9866,1.9865,1.9865,1.9862,1.9862,1.9867,1.986,1.986,1.986,1.986,0,1.9991,1.9986,1.9974,1.997,1.9963,1.9954,1.9948,1.9941,1.9932,1.9926,1.9917,1.9911,1.9898,1.9891,1.9883,1.9875,1.9872,1.9867,1.9865,1.9868,1.9868,1.9863,1.9863,1.986,1.986,1.986,1.986,0,1.9994,1.9986,1.9978,1.9967,1.9964,1.996,1.995,1.9945,1.9938,1.993,1.9928,1.9916,1.9907,1.9897,1.9884,1.9878,1.9871,1.9868,1.9875,1.9874,1.9874,1.9874,1.9875,1.9874,1.9868,1.9868,1.9868,0,1.9993,1.9989,1.9978,1.9974,1.9969,1.9962,1.9957,1.9948,1.9943,1.9932,1.9929,1.992,1.9912,1.9898,1.9888,1.9878,1.9875,1.9876,1.9873,1.9876,1.9875,1.9875,1.9875,1.9876,1.9876,1.9876,1.9876,0,1.9992,1.9989,1.9983,1.9975,1.997,1.9963,1.9956,1.9953,1.9943,1.9937,1.9929,1.9923,1.9912,1.9903,1.9893,1.9886,1.9879,1.9878,1.9877,1.9879,1.9884,1.9881,1.9877,1.9877,1.9877,1.9877,1.9877,1.9877,1.9993,1.9989,1.9982,1.9975,1.9969,1.9964,1.9959,1.9953,1.9946,1.9936,1.9932,1.9924,1.9915,1.9901,1.9895,1.9888,1.9886,1.9884,1.9884,1.9884,1.9885,1.9886,1.9886,1.9886,1.9886,1.9886,1.9886,0,1.9992,1.9987,1.9981,1.9973,1.9968,1.9964,1.9957,1.9953,1.9946,1.9939,1.9932,1.9924,1.9916,1.9906,1.9898,1.9894,1.9891,1.9892,1.9892,1.989,1.9887,1.9889,1.9895,1.9895,1.9895,1.9895,1.9895,1.9895,1.999,1.9984,1.9981,1.9972,1.9967,1.9961,1.9957,1.9951,1.9946,1.9937,1.9931,1.9926,1.9918,1.9909,1.9902,1.9899,1.9896,1.9898,1.9894,1.9891,1.989,1.989,1.9891,1.9897,1.9897,1.9898,1.9898,1.9898]}]]